Regional Weather Roundup
Issued by NWS Cleveland, OH

Home | Current Version | Previous Version | Graphics & Text | Print | Product List | Glossary On
Versions: 1 2 3 4 5 6 7 8 9 10 11 12 13 14 15 16 17 18 19 20 21 22 23 24 25 26 27 28 29 30 31 32 33 34 35 36 37 38 39 40 41 42 43 44 45 46 47 48 49 50
000
ASUS41 KCLE 270012
RWRCLE
OHIO REGIONAL WEATHER ROUNDUP
NATIONAL WEATHER SERVICE WILMINGTON, OH
800 PM EDT SAT MAY 26 2018

NOTE: "FAIR" INDICATES FEW OR NO CLOUDS BELOW 12,000 FEET WITH NO
SIGNIFICANT WEATHER AND/OR OBSTRUCTIONS TO VISIBILITY.

OHZ001>008-015>018-024>027-034-035-043-044-270100-
   NORTHWEST OHIO

CITY           SKY/WX    TMP DP  RH WIND       PRES   REMARKS
DEFIANCE       FAIR      76  65  68 E3        29.78S
FINDLAY        FAIR      77  67  71 S6        29.78S
TOLEDO EXPRESS MOCLDY    77  72  84 CALM      29.77F
TOLEDO EXEC    FAIR      77  67  71 S3        29.79S
LIMA           FAIR      76  69  79 S6        29.79S
$$

OHZ009>014-019>023-028>033-038-089-270100-
   NORTHEAST OHIO

CITY           SKY/WX    TMP DP  RH WIND       PRES   REMARKS
CLE-HOPKINS    LGT RAIN  72  69  90 S8        29.83R
CLE-LAKEFRONT  FAIR      72  64  76 S7        29.80R
CUY CO. ARPT   MOCLDY    73  68  83 E6        29.82S
LORAIN-ELYRIA  CLOUDY    69  62  78 S7        29.82R
ASHTABULA      FAIR      71  70  96 SE6       29.84S
AKRON-CANTON   TSTM      71  67  87 W3        29.87R FOG
WOOSTER        LGT RAIN  66  66 100 SE12      29.85F FOG
MANSFIELD      MOCLDY    69  66  90 E6        29.85R
YOUNGSTOWN     CLOUDY    72  66  81 CALM      29.85R
$$

OHZ042-051>053-060>062-070>072-077>081-270100-
  SOUTHWEST OHIO

CITY           SKY/WX    TMP DP  RH WIND       PRES   REMARKS
CINC-COVINGTON MOCLDY    76  66  71 S15       29.81R
CINC-LUNKEN    FAIR      76  71  85 S10       29.82R
HAMILTON       FAIR      80  73  79 S3        29.80S
DAYTON         LGT RAIN  72  70  93 S5        29.81F
WRIGHT-PAT AFB LGT RAIN  73  69  90 S6        29.80F
DAYTON GENERAL MOCLDY    73  64  73 VRB3      29.81R
WILMINGTON     FAIR      73  69  87 SW7       29.82R
$$

OHZ036-037-039>041-045>050-054>059-063>069-073>076-082>088-270100-
  CENTRAL AND SOUTHEAST OHIO

CITY           SKY/WX    TMP DP  RH WIND       PRES   REMARKS
COLUMBUS       CLOUDY    71  66  84 SE3       29.80F
OSU AIRPORT    FAIR      70  68  93 SE3       29.81F
BOLTON FIELD   NOT AVBL
RICKENBACK AFB FAIR      70  70  99 MISG      29.81F
NEWARK         LGT RAIN  70  68  93 E6        29.83S
MARION         CLOUDY    72  67  84 E6        29.83R
LANCASTER      LGT RAIN  71  69  93 CALM      29.84S
ZANESVILLE     TSTM      69  66  90 VRB7      29.85S FOG
NEW PHILLY     MOCLDY    74  66  76 S3        29.85R
$$




USA.gov is the U.S. government's official web portal to all federal, state and local government web resources and services.